Location: Bartshausen
(51.8454°N, 9.8167°E)
Time: 07:11:21
(UTC+00:00)

SL-16 R/B - Pass Details

Date: 08 November 2025
Orbit: 841 x 844 km, 71.0° (Epoch: 12 December)

Event Time Altitude Azimuth Distance (km) Brightness Sun altitude
Exits shadow 02:24:14 27° 33° (NNE) 1,580 3.9 -37.3°
Drops below altitude 10° 02:26:41 10° 32° (NNE) 2,476 5.1 -36.9°
Sets 02:29:08 0° 32° (NNE) 3,415 6.0 -36.6°
